Track STARLINK-5130 now! 10-day predictions STARLINK-5130 is classified as:
1 53997U 22125AK 24324.97348666 -.00009095 00000-0 -55378-3 0 9995 2 53997 53.2165 175.4281 0001122 96.8683 263.2437 15.08861366117933